Location: Betpouey
(42.8833°N, 0.0333°E)
Time: 22:30:26
(UTC+00:00)

Cosmos 1602 - Pass Details

Date: 01 December 2020
Orbit: 512 x 535 km, 82.5° (Epoch: 18 January)

Event Time Altitude Azimuth Distance (km) Brightness Sun altitude
Rises 17:40:34 0° 352° (N) 2,685 7.2 -13.2°
Reaches altitude 10° 17:42:44 10° 353° (N) 1,786 6.3 -13.6°
Maximum altitude 17:46:40 83° 82° (E) 537 3.6 -14.3°
Drops below altitude 10° 17:50:32 10° 171° (S) 1,758 6.5 -15.0°
Sets 17:52:39 0° 172° (S) 2,637 7.4 -15.3°
